[[{"header":{"parameterUnit":"m.s-1","parameterCategory":1,"la1":30.2991,"la2":30.254,"lo1":-89.0895,"lo2":-89.0444,"dy":0.0017,"dx":0.0017,"nx":28,"ny":28,"refTime":"2023-03-27T15:00:00:Z","depth":0,"parameterNumber":2,"parameterNumberName":"U-component_of_WINDS"},"data":[0,0,0,0,0,0,0,0,0,0,0,0,0,0,0,0,0,0,0,0,0,0,0,0,0,0,0,0,0,0,0,0,0,0,0,0,0,0,0,0,0,0,0,0,0,0,0,0,0,0,0,0,0,0,0,0,0,0,-3.1773,-3.1773,0,-3.1779,-3.1779,-3.1779,-3.1697,-3.1694,-3.1692,-3.169,-3.1697,-3.1699,-3.1702,0,0,0,0,0,0,0,0,0,0,0,0,0,-3.1691,-3.1693,-3.1773,-3.1773,-3.1773,-3.1779,-3.1779,-3.1779,-3.1697,-3.1694,-3.1692,-3.1689,-3.1696,-3.1699,-3.1702,0,0,0,0,0,0,0,0,0,0,0,0,0,-3.1715,-3.1693,-3.1773,-3.1733,-3.173,-3.1779,-3.1779,-3.1779,-3.1698,-3.1694,-3.1691,-3.1688,-3.1696,-3.1699,-3.1702,-3.1791,0,0,-3.1713,-3.1714,0,0,0,0,0,0,0,0,-3.1714,-3.1718,-3.1739,-3.1736,-3.1732,-3.1734,-3.1753,-3.1783,-3.1699,-3.171,-3.169,-3.1686,-3.1712,-3.1714,-3.1723,-3.1791,-3.1792,-3.1713,-3.1715,-3.1717,-3.1718,0,0,0,0,0,0,0,-3.1712,-3.1717,-3.1776,-3.1739,-3.1735,-3.1715,-3.1714,-3.1758,-3.173,-3.1709,-3.1703,-3.1704,-3.171,-3.1719,-3.1722,-3.1792,-3.1713,-3.1716,-3.1718,-3.1719,-3.1933,-3.1936,0,0,0,0,0,0,-3.1716,-3.1716,-3.1775,-3.1776,-3.1714,-3.1719,-3.1719,-3.1737,-3.1729,-3.1725,-3.1707,-3.1701,-3.1715,-3.1718,-3.1722,-3.1825,-3.1717,-3.172,-3.1722,-3.1929,-3.1934,-3.1938,0,0,0,0,0,0,-3.1714,-3.1722,-3.1775,-3.1744,-3.175,-3.1724,-3.1745,-3.1739,-3.1748,-3.1728,-3.1723,-3.1723,-3.1713,-3.1717,-3.1774,-3.1825,-3.1721,-3.1724,-3.1925,-3.1931,-3.1936,-3.2033,0,0,0,0,0,0,-3.1712,-3.1722,-3.1755,-3.1746,-3.1752,-3.1828,-3.1748,-3.1741,-3.1754,-3.1746,-3.1741,-3.1737,-3.171,-3.177,-3.1778,-3.1827,-3.1727,-3.192,-3.1927,-3.1934,-3.2026,-3.2041,-3.2055,0,0,0,0,0,-3.171,-3.1783,-3.1758,-3.1765,-3.1793,-3.1831,-3.1834,-3.1802,-3.1759,-3.1792,-3.1779,-3.1737,-3.1817,-3.1776,-3.1784,-3.1836,-3.1917,-3.1925,-3.1933,-3.2019,-3.2038,-3.2055,0,0,0,0,0,0,-3.18,-3.1781,-3.1753,-3.1825,-3.183,-3.1817,-3.1858,-3.1823,-3.1841,-3.1832,-3.1791,-3.1791,-3.1855,-3.1851,-3.1805,-3.1921,-3.186,-3.187,-3.1922,-3.194,-3.1955,-3.1955,-3.173,0,0,0,0,0,-3.1828,-3.186,-3.1842,-3.1908,-3.1911,-3.1885,-3.19,-3.1874,-3.1878,-3.188,-3.1871,-3.1876,-3.1902,-3.1921,-3.1944,-3.2024,-3.2022,-3.2063,-3.2078,-3.209,-3.21,-3.2142,-3.216,-3.1964,-3.1964,-3.1964,0,0,-3.1887,-3.1881,-3.1904,-3.1926,-3.1926,-3.1961,-3.1887,-3.1926,-3.1951,-3.1886,-3.1939,-3.1933,-3.1936,-3.2005,-3.2035,-3.2004,-3.2153,-3.2101,-3.2111,-3.2114,-3.2152,-3.2171,-3.2188,-3.197,-3.1969,-3.1968,0,0,-3.2012,-3.2011,-3.2065,-3.2067,-3.2069,-3.205,-3.2063,-3.2055,-3.2048,-3.2101,-3.2052,-3.2081,-3.2127,-3.2131,-3.214,-3.2265,-3.2227,-3.2273,-3.2351,-3.2392,-3.2408,-3.2421,-3.2467,-3.2483,-3.2283,-3.2283,-3.2283,0,-3.2086,-3.2135,-3.2098,-3.214,-3.2151,-3.2092,-3.2147,-3.2151,-3.2161,-3.217,-3.2134,-3.219,-3.2188,-3.2257,-3.2288,-3.2296,-3.231,-3.2274,-3.2409,-3.2422,-3.2434,-3.2477,-3.2494,-3.2289,-3.2288,-3.2287,-3.2287,0,-3.2225,-3.226,-3.2304,-3.2314,-3.233,-3.2379,-3.2348,-3.2369,-3.2341,-3.2326,-3.238,-3.2375,-3.2397,-3.2411,-3.2385,-3.2476,-3.2457,-3.2416,-3.2353,-3.2459,-3.2498,-3.2514,-3.2297,-3.2295,-3.2293,-3.2292,0,0,-3.241,-3.2397,-3.2414,-3.2418,-3.2415,-3.2441,-3.2486,-3.2506,-3.2525,-3.2533,-3.257,-3.261,-3.2572,-3.2581,-3.2554,-3.2591,-3.2691,-3.2545,-3.2544,-3.2573,-3.2792,-3.2824,-3.2843,-3.2665,-3.2668,-3.267,-3.2792,0,-3.2532,-3.2609,-3.2576,-3.2657,-3.2688,-3.2632,-3.2671,-3.2674,-3.2661,-3.2686,-3.2671,-3.27,-3.2647,-3.2652,-3.2685,-3.2672,-3.2734,-3.2662,-3.27,-3.2702,-3.2702,-3.2864,-3.2898,-3.3013,-3.2807,-3.2809,-3.2811,0,-3.2686,-3.27,-3.2784,-3.2774,-3.2786,-3.2822,-3.2837,-3.2862,-3.2863,-3.2851,-3.2861,-3.2826,-3.2869,-3.2806,-3.2866,-3.2818,-3.2831,-3.2827,-3.283,-3.2834,-3.2764,-3.2873,-3.3049,-3.3067,-3.2835,-3.2833,-3.2832,0,-3.2813,-3.2852,-3.2907,-3.2912,-3.2902,-3.2929,-3.2926,-3.2924,-3.2938,-3.2951,-3.2959,-3.2978,-3.2988,-3.3003,-3.2974,-3.293,-3.3038,-3.2972,-3.303,-3.3031,-3.3056,-3.3056,-3.3239,-3.3063,-3.3063,-3.3062,-3.3062,0,-3.2954,-3.3008,-3.2964,-3.2999,-3.3057,-3.3017,-3.3076,-3.3067,-3.3065,-3.3096,-3.3048,-3.3078,-3.3037,-3.3064,-3.3041,-3.3094,-3.3099,-3.3091,-3.3084,-3.3096,-3.3097,-3.3105,-3.3097,-3.3067,-3.3066,-3.3065,-3.3064,0,-3.3107,-3.308,-3.3136,-3.3122,-3.3119,-3.3163,-3.315,-3.3181,-3.3164,-3.3204,-3.3211,-3.3184,-3.3213,-3.3184,-3.3211,-3.3196,-3.3268,-3.3249,-3.3268,-3.3263,-3.3322,-3.3317,-3.3518,-3.3542,-3.335,-3.3352,-3.3354,0,-3.32,-3.324,-3.3229,-3.3246,-3.3246,-3.3274,-3.3288,-3.325,-3.3266,-3.327,-3.33,-3.3324,-3.3342,-3.339,-3.3373,-3.3393,-3.3375,-3.3444,-3.3378,-3.3388,-3.3378,-3.3376,-3.338,-3.3458,-3.346,-3.3462,-3.3464,0,-3.3367,-3.3352,-3.3373,-3.3389,-3.3406,-3.3418,-3.3425,-3.3442,-3.3403,-3.3423,-3.3451,-3.3465,-3.3491,-3.3516,-3.3531,-3.3528,-3.349,-3.3484,-3.3499,-3.3512,-3.3521,-3.3518,-3.3305,-3.348,-3.3479,-3.3477,-3.3477,-3.3476,-3.3494,-3.3526,-3.3523,-3.3548,-3.355,-3.3557,-3.3586,-3.3571,-3.3594,-3.3612,-3.3588,-3.3623,-3.3622,-3.3638,-3.3639,-3.3666,-3.3637,-3.3658,-3.3664,-3.367,-3.3679,-3.3516,-3.3669,-3.3668,-3.3668,-3.3667,-3.3667,0,-3.3659,-3.3654,-3.3678,-3.3689,-3.3709,-3.3669,-3.3675,-3.3694,-3.3725,-3.3728,-3.3745,-3.3777,-3.3801,-3.3785,-3.3805,-3.383,-3.3813,-3.3836,-3.3835,-3.3835,-3.3703,-3.3689,-3.385,-3.385,-3.3849,-3.3849,-3.3849,-3.3849,-3.3748,-3.3801,-3.3785,-3.3838,-3.3832,-3.3865,-3.3872,-3.3879,-3.388,-3.3918,-3.3937,-3.3926,-3.3921,-3.394,-3.396,-3.3955,-3.3965,-3.3995,-3.3984,-3.3862,-3.3844,-3.3827,-3.3813,-3.3997,-3.3997,-3.4113,-3.4114,-3.4115]},{"header":{"parameterUnit":"m.s-1","parameterCategory":1,"la1":30.2991,"la2":30.254,"lo1":-89.0895,"lo2":-89.0444,"dy":0.0017,"dx":0.0017,"nx":28,"ny":28,"refTime":"2023-03-27T15:00:00:Z","depth":0,"parameterNumber":3,"parameterNumberName":"V-component_of_WINDS"},"data":[0,0,0,0,0,0,0,0,0,0,0,0,0,0,0,0,0,0,0,0,0,0,0,0,0,0,0,0,0,0,0,0,0,0,0,0,0,0,0,0,0,0,0,0,0,0,0,0,0,0,0,0,0,0,0,0,0,0,-5.3681,-5.3682,0,-5.3718,-5.3719,-5.3719,-5.3668,-5.3666,-5.3664,-5.3662,-5.3696,-5.3699,-5.3701,0,0,0,0,0,0,0,0,0,0,0,0,0,-5.3562,-5.3564,-5.3681,-5.3682,-5.3682,-5.3718,-5.3719,-5.3719,-5.3668,-5.3666,-5.3663,-5.3661,-5.3695,-5.3698,-5.3701,0,0,0,0,0,0,0,0,0,0,0,0,0,-5.3608,-5.3565,-5.3681,-5.3661,-5.366,-5.3718,-5.3719,-5.3719,-5.3668,-5.3666,-5.3663,-5.366,-5.3694,-5.3698,-5.3702,-5.378,0,0,-5.3714,-5.3715,0,0,0,0,0,0,0,0,-5.3605,-5.3612,-5.3664,-5.3663,-5.3661,-5.3686,-5.3689,-5.374,-5.3669,-5.3665,-5.3662,-5.3659,-5.3695,-5.3698,-5.3711,-5.3782,-5.3783,-5.3714,-5.3716,-5.3718,-5.3719,0,0,0,0,0,0,0,-5.3602,-5.361,-5.3696,-5.3664,-5.3663,-5.3649,-5.3652,-5.3698,-5.3694,-5.3665,-5.3661,-5.3667,-5.3693,-5.3707,-5.3711,-5.3784,-5.3714,-5.3717,-5.372,-5.3721,-5.392,-5.3923,0,0,0,0,0,0,-5.3602,-5.3608,-5.3695,-5.3697,-5.3626,-5.3653,-5.3657,-5.368,-5.3694,-5.3693,-5.3669,-5.3664,-5.3702,-5.3707,-5.3712,-5.3805,-5.3718,-5.3722,-5.3724,-5.3917,-5.3921,-5.3924,0,0,0,0,0,0,-5.36,-5.361,-5.3693,-5.3651,-5.3661,-5.3658,-5.3685,-5.3683,-5.3697,-5.3697,-5.3695,-5.3684,-5.37,-5.3707,-5.3764,-5.3805,-5.3723,-5.3727,-5.3914,-5.3919,-5.3923,-5.3991,0,0,0,0,0,0,-5.3596,-5.361,-5.3641,-5.3653,-5.3663,-5.3746,-5.3687,-5.3685,-5.3704,-5.3698,-5.3711,-5.371,-5.3698,-5.3758,-5.3768,-5.3809,-5.373,-5.391,-5.3916,-5.3921,-5.3985,-5.3997,-5.4008,0,0,0,0,0,-5.3592,-5.3658,-5.3642,-5.3653,-5.3702,-5.3748,-5.3754,-5.374,-5.3708,-5.3738,-5.3738,-5.371,-5.3799,-5.3765,-5.3775,-5.3818,-5.3908,-5.3914,-5.3921,-5.398,-5.3995,-5.4007,0,0,0,0,0,0,-5.3649,-5.3659,-5.3642,-5.3714,-5.3731,-5.3739,-5.3777,-5.3756,-5.3782,-5.3775,-5.3755,-5.3759,-5.382,-5.3824,-5.3786,-5.3894,-5.3848,-5.3857,-5.3889,-5.3903,-5.3914,-5.3912,-5.3733,0,0,0,0,0,-5.367,-5.3708,-5.3714,-5.3776,-5.3786,-5.378,-5.38,-5.3788,-5.3804,-5.381,-5.3814,-5.383,-5.3861,-5.3883,-5.3912,-5.3985,-5.3987,-5.402,-5.4031,-5.404,-5.4048,-5.4087,-5.4101,-5.3946,-5.3946,-5.3946,0,0,-5.3714,-5.3724,-5.3748,-5.3788,-5.38,-5.3838,-5.3787,-5.3829,-5.3857,-5.3816,-5.3871,-5.3874,-5.389,-5.3956,-5.3985,-5.3962,-5.4092,-5.4049,-5.4056,-5.4059,-5.4095,-5.411,-5.4123,-5.395,-5.395,-5.3949,0,0,-5.3812,-5.3824,-5.3877,-5.389,-5.3909,-5.3905,-5.3918,-5.393,-5.3931,-5.3986,-5.3956,-5.3988,-5.4043,-5.4055,-5.4069,-5.4172,-5.4147,-5.4182,-5.4241,-5.4279,-5.4291,-5.4302,-5.4338,-5.4352,-5.419,-5.419,-5.419,0,-5.3863,-5.3921,-5.3907,-5.3952,-5.397,-5.3936,-5.3989,-5.4001,-5.4028,-5.4041,-5.4014,-5.4083,-5.4091,-5.4159,-5.4184,-5.4196,-5.4209,-5.4181,-5.4291,-5.4301,-5.4311,-5.4346,-5.4359,-5.4194,-5.4194,-5.4193,-5.4193,0,-5.3983,-5.4024,-5.4064,-5.4092,-5.4114,-5.4163,-5.4154,-5.4178,-5.4164,-5.4162,-5.4218,-5.4227,-5.4257,-5.4272,-5.4258,-5.4338,-5.4323,-5.4294,-5.4247,-5.433,-5.4362,-5.4375,-5.42,-5.4199,-5.4198,-5.4197,0,0,-5.4118,-5.4138,-5.4153,-5.4166,-5.4184,-5.4214,-5.4261,-5.4291,-5.4312,-5.4331,-5.4369,-5.4416,-5.439,-5.4406,-5.4393,-5.4426,-5.4507,-5.4393,-5.4393,-5.4413,-5.4594,-5.4615,-5.4631,-5.449,-5.4493,-5.4495,-5.4592,0,-5.4217,-5.4299,-5.4287,-5.4365,-5.4402,-5.437,-5.4411,-5.4425,-5.4425,-5.4455,-5.4453,-5.4487,-5.445,-5.4459,-5.4491,-5.449,-5.4542,-5.4483,-5.4524,-5.4526,-5.4521,-5.4648,-5.467,-5.4762,-5.4605,-5.4607,-5.4609,0,-5.4342,-5.4368,-5.4451,-5.4463,-5.4478,-5.4515,-5.4542,-5.4571,-5.4587,-5.4584,-5.4601,-5.4582,-5.4627,-5.458,-5.4641,-5.4601,-5.4616,-5.4619,-5.4622,-5.4625,-5.4572,-5.4653,-5.4791,-5.4805,-5.4628,-5.4627,-5.4625,0,-5.4432,-5.4487,-5.4544,-5.4555,-5.4571,-5.4598,-5.4605,-5.4618,-5.4637,-5.466,-5.4672,-5.47,-5.4715,-5.4736,-5.4724,-5.4691,-5.4787,-5.4739,-5.4785,-5.4786,-5.4806,-5.4805,-5.4948,-5.4818,-5.4818,-5.4817,-5.4817,0,-5.4543,-5.4595,-5.4584,-5.4619,-5.4676,-5.4661,-5.4716,-5.472,-5.4732,-5.4765,-5.4739,-5.4771,-5.4754,-5.4784,-5.4775,-5.4827,-5.4834,-5.4832,-5.4829,-5.4834,-5.4834,-5.4844,-5.4837,-5.4821,-5.482,-5.4819,-5.4819,0,-5.4653,-5.4648,-5.4708,-5.4718,-5.4722,-5.4763,-5.4771,-5.4803,-5.4801,-5.4844,-5.4853,-5.4848,-5.4883,-5.4873,-5.491,-5.4904,-5.4969,-5.4958,-5.4964,-5.4961,-5.5008,-5.5004,-5.5162,-5.5182,-5.5039,-5.504,-5.5041,0,-5.4724,-5.4763,-5.4778,-5.48,-5.481,-5.4844,-5.4864,-5.485,-5.4872,-5.4892,-5.4921,-5.4954,-5.4979,-5.5034,-5.5034,-5.5061,-5.5051,-5.5104,-5.5054,-5.5058,-5.5051,-5.5048,-5.5052,-5.5114,-5.5116,-5.5117,-5.5118,0,-5.485,-5.4846,-5.4876,-5.4906,-5.493,-5.4952,-5.4972,-5.499,-5.4978,-5.5003,-5.5038,-5.5058,-5.5096,-5.5128,-5.5153,-5.5159,-5.5136,-5.5134,-5.5146,-5.5151,-5.5153,-5.5152,-5.4991,-5.513,-5.5129,-5.5128,-5.5127,-5.5127,-5.4942,-5.4976,-5.4992,-5.5026,-5.5039,-5.5058,-5.5088,-5.509,-5.512,-5.5151,-5.514,-5.5181,-5.5194,-5.5226,-5.5236,-5.5266,-5.5245,-5.5263,-5.5267,-5.5272,-5.5278,-5.5149,-5.5271,-5.527,-5.527,-5.527,-5.5269,0,-5.5067,-5.5075,-5.5107,-5.5136,-5.5163,-5.514,-5.5161,-5.5184,-5.522,-5.5235,-5.5261,-5.5301,-5.5332,-5.5334,-5.5362,-5.5386,-5.5376,-5.5394,-5.5392,-5.5394,-5.5295,-5.5281,-5.5402,-5.5401,-5.5401,-5.5401,-5.5401,-5.5401,-5.5135,-5.5189,-5.5187,-5.5248,-5.5256,-5.5296,-5.531,-5.5326,-5.5338,-5.5385,-5.5411,-5.5413,-5.5422,-5.5451,-5.5478,-5.5477,-5.5489,-5.5511,-5.5506,-5.5414,-5.5401,-5.5388,-5.5375,-5.5513,-5.5513,-5.5602,-5.5603,-5.5604]}]]